Погода в Софьино

Россия / Московская область     55°29′57″N   38°10′36″E
темп.,
°C
ветер,
м/с
пор.,
м/с
влажн.,
%
обл.,
%
осадки,
мм/ч
давл.,
гПа
погр.,
м
13 мая, чт
чт1300:00+11ю489211 0.2 1019432
03:00+7ююв349848 0.2 102081
06:00+8вюв24945 0.0 1020147
09:00+13вюв357091 0.0 1019500
12:00+17юв465493 0.0 10171098
15:00+17ю466089 0.0 10151173
18:00+14ююз3785100 0.6 1015398
21:00+10ююв3492100 0.6 101675
14 мая, пт
пт1400:00+9ююв3596100 0.0 1016102
03:00+8ююв33952 0.0 101745
06:00+9юв249348 0.0 1018125
09:00+15юв357434 0.0 1018479
12:00+19ююв4662100 0.0 10171062
15:00+20ююв576894 0.2 10151186
18:00+19вюв51081100 2.8 1013546
21:00+16юв61589100 9.4 1011445
15 мая, сб
сб1500:00+14ююв3109678 1.9 1011197
03:00+13юв4596100 2.1 101183
06:00+15вюв3695100 0.3 1010148
09:00+18ю4883100 1.3 1011607
12:00+18ююв61189100 1.8 1009756
15:00+21ю587390 2.8 10081241
18:00+19ююз610760 2.0 1008590
21:00+15ююз613875 2.4 1009548
16 мая, вс
вс1600:00+13ююз512951 0.0 1010459
03:00+12ююз511969 0.0 1011336
06:00+12ююз512932 0.0 1012441
09:00+17юз587817 0.0 1012720
12:00+19юз576997 0.8 10131373
15:00+20юз67690 2.3 10131268
18:00+19юз58775 1.2 1013685
21:00+14юз35916 1.2 101476
17 мая, пн
пн1700:00+13юз35951 0.0 101592
03:00+12юз22945 0.0 101515
06:00+13ююз129176 0.0 101659
09:00+18ююв237538 0.0 1016514
12:00+22ююв235975 0.0 10151008
15:00+23юв345496 0.0 10151102
18:00+23юв25685 0.0 1014660
21:00+17вюв4890100 0.6 1013121